Regional Weather Roundup
Issued by NWS Newport/Morehead, NC

Current Version | Previous Version | Graphics & Text | Print | Product List | Glossary Off
Versions: 1 2 3 4 5 6 7 8 9 10 11 12 13 14 15 16 17 18 19 20 21 22 23 24 25 26 27 28 29 30 31 32 33 34 35 36 37 38 39 40 41 42 43 44 45 46 47 48 49 50

000
ASUS42 KMHX 081812
RWRMHX
WEATHER ROUNDUP FOR EASTERN NORTH CAROLINA
NATIONAL WEATHER SERVICE NEWPORT/MOREHEAD CITY NC
100 PM EST THU DEC 08 2016

NOTE: "FAIR" INDICATES FEW OR NO CLOUDS BELOW 12,000 FEET
WITH NO SIGNIFICANT WEATHER AND/OR OBSTRUCTIONS TO VISIBILITY

NCZ015>017-031-032-045>047-102-103-081900-
NORTH COAST

CITY           SKY/WX    TMP DP  RH WIND       PRES   REMARKS
EDENTON        CLOUDY    55  47  75 NW7       30.01F
ELIZABETH CITY CLOUDY    52  48  86 W10       30.00F
KITTY HAWK     CLOUDY    55  51  83 CALM      29.97F
MANTEO         CLOUDY    56  49  77 W8        29.99F

$$

NCZ045>047-081-094-103-104-081900-
CENTRAL COAST

CITY           SKY/WX    TMP DP  RH WIND       PRES   REMARKS
FRISCO         PTSUNNY   61  51  70 W8        29.99

$$

NCZ095-097-098-100-101-081900-
SOUTHERN COAST

CITY           SKY/WX    TMP DP  RH WIND       PRES   REMARKS
BEAUFORT       CLOUDY    58  49  72 W12       30.01F
CEDAR ISLAND   NOT AVBL
JACKSONVILLE   CLOUDY    58  51  78 NW14      30.03F
PINEY ISLAND   CLOUDY   N/A N/A N/A W13       30.00F
WILMINGTON     MOSUNNY   60  50  69 W9        30.04F


$$

NCZ011>013-027>030-043-044-078>080-089-090>093-098-081900-
COASTAL PLAIN

CITY           SKY/WX    TMP DP  RH WIND       PRES   REMARKS
AHOSKIE        CLOUDY    49  39  67 CALM      30.03F
CLINTON        CLOUDY    55  44  67 N8        30.08S
ELIZABETHTOWN  CLOUDY    57  50  77 NW7       30.06F
GOLDSBORO      CLOUDY    54  35  48 NW14      30.05S
GREENVILLE     CLOUDY    52  34  50 NW12G18   30.07R
HAVELOCK       CLOUDY    56  49  77 NW13      30.03F
KENANSVILLE    CLOUDY    54  45  71 NW12      30.06F
KINSTON        CLOUDY    54  39  58 NW10G18   30.06F
NEW BERN       CLOUDY    56  49  77 W13G18    30.04F
RICHLANDS      CLOUDY    56  49  77 NW8       30.05F
ROCKY MOUNT    CLOUDY    50  29  44 NW10      30.07F
WASHINGTON     CLOUDY    53  42  66 NW8       30.03F
WHITEVILLE     PTSUNNY   57  48  71 W7        30.06F

$$

AMZ130-135-150-152-154-156-158-170-250-252-270-ANZ085-086-088-633-658-670-081900-
MARINE OBSERVATIONS

STATION/POSITION TIME  TEMP    WIND        PRES    WAVE   SWELL
                       AIR SEA DIR/SP/G            HT/PER HT/PER
                 (UTC) (F)     (DEG/KT/KT) (MB)    (FT/S) (FT/S)
CHESAPEAKE LIGHT NOT AVBL
64 E VA BEACH    1750   54 59  240/  8/ 12 1014.7    4/ 9   3/ 9
DUCK             1736   52 54  300/  5/  7 1015.1
2 E DUCK         NOT AVBL
OREGON INLET     1736   54 55  200/  4/  5 1015.4
13E OREGON INLT  NOT AVBL
HATTERAS CG      1736   58 61  260/ 10/ 12 1015.3
DIAMOND BUOY     1750   63 78  250/ 19/ 25 1015.0    4/11   3/11
CAPE LOOKOUT     1800   56     280/ 16/ 18 1015.9
BEAUFORT LAB     1736   56 55  290/ 10/ 15 1015.7
30 SE NEW RVR IN 1708   54 70  300/ 14/ 19 1017.6
30 SE NEW RVR IN NOT AVBL
27 SE WRIGHTSVLE 1708   57 67  290/ 14/ 19 1017.3
5 SE WRIGHTSVLE  1708   56 62  280/ 12/ 17 1017.5
225 S CAPE HAT   1750   73 74  260/ 12/ 14 1016.3    5/10   3/10
41 SE CHARLESTON 1750   60 74  320/ 14/ 17 1017.5    3/ 4   2/ 9

$$



USA.gov is the U.S. government's official web portal to all federal, state and local government web resources and services.